7 * 24
多渠道服务支持
STARLINK-37301(NORAD编号68954)是美国SpaceX公司星链(Starlink)卫星互联网星座的一员,属于星链项目规模化部署阶段发射的低轨通信卫星。星链项目计划在近地轨道部署上万颗卫星,为全球提供高带宽、低延迟的互联网接入服务,覆盖偏远地区,也可支持军事与应急通信场景。该卫星运行于近地轨道,参与构建全球卫星互联网络,推动全球网络覆盖,但星链的大规模扩张也引发了太空拥堵、天文观测干扰等争议。作为星链星座的常规组网卫星,STARLINK-37301承担着星链网络节点通信转发功能,助力星座服务能力的持续扩展。
美国
(US)
| 数据来源 | 国际轨道数据 |
| 星历时间: | 2026-06-12T14:00:03+0800 16小时前 查看轨道信息 |
| 半长轴: | 6840.84km |
| 偏心率: | 0.000118 |
| 轨道倾角: | 53.160° |
| 近地点辐角 | 69.898° |
| 升交点赤经 | 184.621° |
| 平近点角 | 198.625° |
| 近地点: | 461.895km |
| 远地点: | 463.511km |
| 周期: | 93.848分钟 |
| 每日圈数: | 15.344002 |